Weather Roundup
Issued by NWS Chicago, IL

Home | Current Version | Previous Version | Text Only | Print | Product List | Glossary Off
Versions: 1 2 3 4 5 6 7 8 9 10 11 12 13 14 15 16 17 18 19 20 21 22 23 24 25 26 27 28 29 30 31 32 33 34 35 36 37 38 39 40 41 42 43 44 45 46 47 48 49 50

000
NZUS59 KLOT 171508
HRRLOT

CHICAGO AREA WEATHER ROUNDUP
NATIONAL WEATHER SERVICE CHICAGO/ROMEOVILLE IL
1000 AM CDT THU AUG 17 2017

NOTE: "FAIR" INDICATES FEW OR NO CLOUDS BELOW 12,000 FEET WITH NO
SIGNIFICANT WEATHER AND/OR OBSTRUCTIONS TO VISIBILITY.

* THESE STATIONS ARE NOT UNDER NWS QUALITY CONTROL. THEY ALSO MAY NOT
  REPORT WEATHER SUCH AS PRECIPITATION OR FOG.

ILZ005-006-012>014-019>023-171600-
NORTHEAST ILLINOIS

CITY           SKY/WX    TMP DP  RH WIND       PRES   REMARKS
OHARE          CLOUDY    74  69  85 S13       29.75F
MIDWAY         CLOUDY    74  70  87 S14G21    29.76F
AURORA         CLOUDY    74  71  91 SW15G22   29.78R
LANSING*       CLOUDY    74  68  80 SW15G21   29.78F
JOLIET*        CLOUDY    74  72  92 SW7       29.78S
WAUKEGAN       CLOUDY    75  72  90 SW13      29.73F
DUPAGE AIRPORT CLOUDY    73  71  93 SW15      29.76S
WHEELING       CLOUDY    74  71  91 SW12      29.76S
MORRIS*        CLOUDY    73  70  88 SW10      29.78R
LEWIS AIRPORT* CLOUDY    73  68  86 SW14G20   29.78S
NORTHERLY ISL    N/A     73  68  84 S17         N/A
$$

WIZ051-052-058>065-066-070>072-171600-
SOUTHEAST WISCONSIN

CITY           SKY/WX    TMP DP  RH WIND       PRES   REMARKS
MILWAUKEE      PTSUNNY   76  71  85 SW14      29.72F
KENOSHA*       CLOUDY    76  70  82 SW12      29.73F
RACINE*        CLOUDY    76  71  85 SW12      29.74S
WAUKESHA       CLOUDY    72  68  88 S8        29.74R
WEST BEND      PTSUNNY   73  70  88 S15       29.70F
$$

INZ001>003-010>013-019-020-171600-
NORTHWEST INDIANA

CITY           SKY/WX    TMP DP  RH WIND       PRES   REMARKS
GARY*          PTSUNNY   75  70  83 S6        29.79F
MICHIGAN CITY* NOT AVBL
RENSSELAER*    NOT AVBL
VALPARAISO     CLOUDY    76  72  87 SW9       29.80F
$$

LMZ740>746-171600-
SOUTHERN LAKE MICHIGAN

STATION/POSITION TIME  SKY/WX   TEMP WIND        PRES    VSBY
                                AIR  DIR/SP/G
                 (UTC)          (F)  (DEG/KT/KT) (MB)    (MI)
HARRISON CRIB    1440            74  200/ 18/ 23   N/A
BURNHAM HARBOR   NOT AVBL
CALUMET HARBOR   1442            74  190/  8/ 13 1007.6F
BURNS HARBOR     1440            74  190/ 11/ 18 1009.1F
MICHIGAN CITY    1440            72  190/ 11/ 13   N/A
$$

ABBREVIATIONS USED IN REMARKS
   TC - TEMPERATURE IN CELSIUS
  WCI - WIND CHILL INDEX
   HX - HEAT INDEX
  VSB - VISIBILITY
$$



USA.gov is the U.S. government's official web portal to all federal, state and local government web resources and services.